FD206 LDZA-LQSA

Flight info

Callsign FD206
Flight time 0h 45m
Altitude 15000
Route TEBLI1W TEBLI L187 KOMAR L608 BOSNA BOSNA1N
Aircraft PC12/L-SDFGRWY/S

Departure

Time 2026-04-29 06:30
Airport Zagreb Franjo Tuđman International Airport (LDZA)

Arrival

Time 2026-04-29 07:15
Airport Sarajevo International Airport (LQSA)
Time Latitude Longitude Altitude Speed Heading
2026-04-29 06:04 45.74160 16.07843 357 ft 0 kts 179°
2026-04-29 06:22 45.74159 16.07844 357 ft 0 kts 145°
2026-04-29 06:23 45.74163 16.07840 356 ft 2 kts 145°
2026-04-29 06:23 45.74174 16.07829 358 ft 2 kts 145°
2026-04-29 06:23 45.74185 16.07817 353 ft 2 kts 145°
2026-04-29 06:24 45.74192 16.07811 352 ft 1 kts 160°
2026-04-29 06:24 45.74182 16.07756 351 ft 10 kts 270°
2026-04-29 06:24 45.74125 16.07656 355 ft 15 kts 256°
2026-04-29 06:24 45.74082 16.07503 353 ft 14 kts 223°
2026-04-29 06:25 45.74116 16.07339 351 ft 26 kts 313°
2026-04-29 06:25 45.74209 16.07143 354 ft 27 kts 236°
2026-04-29 06:25 45.74053 16.06902 350 ft 40 kts 225°
2026-04-29 06:25 45.73840 16.06582 353 ft 44 kts 226°
2026-04-29 06:26 45.73710 16.06384 359 ft 27 kts 228°
2026-04-29 06:26 45.73539 16.06127 354 ft 43 kts 227°
2026-04-29 06:26 45.73329 16.05808 352 ft 44 kts 226°
2026-04-29 06:26 45.73345 16.05622 355 ft 25 kts 315°
2026-04-29 06:27 45.73367 16.05591 360 ft 0 kts 316°
2026-04-29 06:27 45.73377 16.05578 359 ft 0 kts 318°
2026-04-29 06:28 45.73400 16.05555 356 ft 12 kts 341°
2026-04-29 06:28 45.73520 16.05703 354 ft 48 kts 46°
2026-04-29 06:28 45.73899 16.06276 360 ft 105 kts 47°
2026-04-29 06:29 45.74469 16.07187 424 ft 146 kts 45°
2026-04-29 06:29 45.75276 16.08348 653 ft 175 kts 45°
2026-04-29 06:29 45.76502 16.10107 651 ft 197 kts 44°
2026-04-29 06:29 45.77170 16.11035 703 ft 198 kts 43°
2026-04-29 06:30 45.78095 16.12481 854 ft 199 kts 56°
2026-04-29 06:30 45.79757 16.15657 1066 ft 200 kts 47°
2026-04-29 06:30 45.80692 16.17116 1093 ft 201 kts 46°
2026-04-29 06:31 45.81635 16.18598 1309 ft 195 kts 47°
2026-04-29 06:31 45.82485 16.19963 2040 ft 171 kts 46°
2026-04-29 06:31 45.83269 16.21197 2739 ft 169 kts 48°
2026-04-29 06:31 45.84062 16.22531 3176 ft 182 kts 58°
2026-04-29 06:32 45.84358 16.24330 3582 ft 194 kts 92°
2026-04-29 06:32 45.83856 16.26155 4067 ft 206 kts 128°
2026-04-29 06:32 45.82658 16.27323 4588 ft 212 kts 154°
2026-04-29 06:32 45.81293 16.28170 5147 ft 215 kts 157°
2026-04-29 06:33 45.79916 16.29023 5716 ft 216 kts 156°
2026-04-29 06:33 45.78560 16.29891 6357 ft 212 kts 156°
2026-04-29 06:33 45.77229 16.30788 6927 ft 212 kts 152°
2026-04-29 06:33 45.76254 16.32389 7427 ft 222 kts 117°
2026-04-29 06:34 45.75696 16.34474 7956 ft 227 kts 111°
2026-04-29 06:34 45.75138 16.36617 8489 ft 231 kts 117°
2026-04-29 06:34 45.74192 16.38465 9026 ft 232 kts 138°
2026-04-29 06:34 45.72870 16.39788 9572 ft 233 kts 158°
2026-04-29 06:35 45.71374 16.40609 10117 ft 234 kts 164°
2026-04-29 06:35 45.69831 16.41428 10614 ft 238 kts 163°
2026-04-29 06:35 45.68271 16.42260 11145 ft 241 kts 164°
2026-04-29 06:35 45.66689 16.43100 11683 ft 244 kts 164°
2026-04-29 06:36 45.65085 16.43951 12233 ft 247 kts 164°
2026-04-29 06:36 45.63466 16.44810 12810 ft 250 kts 164°
2026-04-29 06:36 45.61832 16.45676 13405 ft 251 kts 164°
2026-04-29 06:36 45.60189 16.46547 13971 ft 253 kts 164°
2026-04-29 06:37 45.58541 16.47420 14484 ft 250 kts 165°
2026-04-29 06:37 45.56906 16.48286 14884 ft 253 kts 165°
2026-04-29 06:37 45.55204 16.49179 14960 ft 267 kts 164°
2026-04-29 06:37 45.53440 16.50111 14963 ft 274 kts 164°
2026-04-29 06:38 45.51642 16.51064 14959 ft 277 kts 164°
2026-04-29 06:38 45.49830 16.52022 14958 ft 278 kts 164°
2026-04-29 06:38 45.48012 16.52981 14961 ft 279 kts 164°
2026-04-29 06:38 45.46188 16.53941 14957 ft 280 kts 164°
2026-04-29 06:39 45.44362 16.54902 14955 ft 280 kts 164°
2026-04-29 06:39 45.42536 16.55864 14959 ft 280 kts 164°
2026-04-29 06:39 45.40711 16.56823 14960 ft 280 kts 164°
2026-04-29 06:39 45.38882 16.57784 14961 ft 280 kts 164°
2026-04-29 06:40 45.37056 16.58744 14955 ft 280 kts 164°
2026-04-29 06:40 45.35250 16.59690 14955 ft 280 kts 164°
2026-04-29 06:40 45.33397 16.60662 14942 ft 280 kts 164°
2026-04-29 06:40 45.31589 16.61610 14939 ft 281 kts 164°
2026-04-29 06:41 45.29758 16.62569 14936 ft 281 kts 164°
2026-04-29 06:41 45.27922 16.63529 14938 ft 281 kts 164°
2026-04-29 06:41 45.26083 16.64491 14936 ft 281 kts 164°
2026-04-29 06:41 45.24246 16.65451 14936 ft 282 kts 164°
2026-04-29 06:42 45.22407 16.66411 14934 ft 281 kts 164°
2026-04-29 06:42 45.20566 16.67372 14938 ft 281 kts 164°
2026-04-29 06:42 45.18731 16.68333 14935 ft 281 kts 164°
2026-04-29 06:42 45.16897 16.69307 14936 ft 282 kts 164°
2026-04-29 06:43 45.15062 16.70281 14939 ft 282 kts 164°
2026-04-29 06:43 45.13227 16.71250 14927 ft 282 kts 164°
2026-04-29 06:43 45.11395 16.72216 14935 ft 280 kts 164°
2026-04-29 06:43 45.09572 16.73178 14940 ft 279 kts 165°
2026-04-29 06:44 45.07752 16.74136 14937 ft 279 kts 165°
2026-04-29 06:44 45.05935 16.75093 14937 ft 279 kts 164°
2026-04-29 06:44 45.04117 16.76050 14938 ft 279 kts 164°
2026-04-29 06:44 45.02294 16.77009 14938 ft 279 kts 165°
2026-04-29 06:45 45.00500 16.77951 14938 ft 279 kts 165°
2026-04-29 06:45 44.98655 16.78921 14937 ft 279 kts 165°
2026-04-29 06:45 44.96873 16.79908 14933 ft 281 kts 158°
2026-04-29 06:45 44.95246 16.81479 14930 ft 286 kts 142°
2026-04-29 06:46 44.93890 16.83552 14932 ft 288 kts 133°
2026-04-29 06:46 44.92593 16.85715 14932 ft 288 kts 133°
2026-04-29 06:46 44.91286 16.87859 14943 ft 289 kts 133°
2026-04-29 06:46 44.89977 16.90002 14942 ft 287 kts 133°
2026-04-29 06:47 44.88676 16.92138 14948 ft 286 kts 133°
2026-04-29 06:47 44.87380 16.94267 14950 ft 286 kts 133°
2026-04-29 06:47 44.86083 16.96394 14951 ft 286 kts 133°
2026-04-29 06:47 44.84786 16.98516 14947 ft 286 kts 133°
2026-04-29 06:48 44.83491 17.00635 14947 ft 285 kts 133°
2026-04-29 06:48 44.82195 17.02753 14947 ft 285 kts 133°
2026-04-29 06:48 44.80894 17.04868 14948 ft 285 kts 133°
2026-04-29 06:48 44.79599 17.06977 14951 ft 285 kts 133°
2026-04-29 06:49 44.78301 17.09091 14947 ft 285 kts 133°
2026-04-29 06:49 44.77004 17.11199 14951 ft 285 kts 133°
2026-04-29 06:49 44.75707 17.13306 14949 ft 285 kts 133°
2026-04-29 06:49 44.74410 17.15411 14942 ft 284 kts 133°
2026-04-29 06:50 44.73113 17.17515 14957 ft 285 kts 133°
2026-04-29 06:50 44.71814 17.19624 14955 ft 285 kts 133°
2026-04-29 06:50 44.70511 17.21734 14954 ft 286 kts 133°
2026-04-29 06:50 44.69210 17.23838 14956 ft 285 kts 133°
2026-04-29 06:51 44.67922 17.25922 14959 ft 286 kts 134°
2026-04-29 06:51 44.66614 17.28036 14959 ft 287 kts 134°
2026-04-29 06:51 44.65286 17.30180 14958 ft 287 kts 134°
2026-04-29 06:51 44.63992 17.32270 14947 ft 287 kts 133°
2026-04-29 06:52 44.62683 17.34382 14945 ft 286 kts 133°
2026-04-29 06:52 44.61389 17.36494 14941 ft 285 kts 133°
2026-04-29 06:52 44.60100 17.38608 14938 ft 285 kts 133°
2026-04-29 06:52 44.58807 17.40713 14942 ft 285 kts 133°
2026-04-29 06:53 44.57508 17.42816 14938 ft 285 kts 133°
2026-04-29 06:53 44.56210 17.44924 14939 ft 285 kts 133°
2026-04-29 06:53 44.54918 17.47025 14939 ft 284 kts 133°
2026-04-29 06:53 44.53625 17.49124 14941 ft 285 kts 133°
2026-04-29 06:54 44.52326 17.51230 14942 ft 285 kts 133°
2026-04-29 06:54 44.51024 17.53339 14941 ft 285 kts 133°
2026-04-29 06:54 44.49723 17.55446 14943 ft 286 kts 133°
2026-04-29 06:54 44.48422 17.57552 14942 ft 286 kts 133°
2026-04-29 06:55 44.47118 17.59658 14945 ft 286 kts 133°
2026-04-29 06:55 44.45832 17.61735 14946 ft 286 kts 133°
2026-04-29 06:55 44.44528 17.63841 14948 ft 286 kts 133°
2026-04-29 06:55 44.43224 17.65945 14943 ft 286 kts 133°
2026-04-29 06:56 44.41919 17.68048 14943 ft 286 kts 133°
2026-04-29 06:56 44.40612 17.70153 14939 ft 286 kts 133°
2026-04-29 06:56 44.39309 17.72249 14940 ft 286 kts 133°
2026-04-29 06:56 44.38007 17.74345 14938 ft 285 kts 133°
2026-04-29 06:57 44.36703 17.76438 14936 ft 285 kts 133°
2026-04-29 06:57 44.35403 17.78527 14932 ft 284 kts 133°
2026-04-29 06:57 44.34107 17.80610 14935 ft 283 kts 133°
2026-04-29 06:57 44.32819 17.82674 14959 ft 282 kts 133°
2026-04-29 06:58 44.31525 17.84745 14964 ft 284 kts 133°
2026-04-29 06:58 44.30221 17.86833 14916 ft 287 kts 133°
2026-04-29 06:58 44.28892 17.88959 14618 ft 294 kts 133°
2026-04-29 06:58 44.27527 17.91142 14088 ft 302 kts 133°
2026-04-29 06:59 44.26155 17.93332 13640 ft 309 kts 133°
2026-04-29 06:59 44.24784 17.95524 13285 ft 293 kts 133°
2026-04-29 06:59 44.23496 17.97585 12987 ft 271 kts 133°
2026-04-29 06:59 44.22264 17.99545 12643 ft 265 kts 133°
2026-04-29 07:00 44.21037 18.01496 12079 ft 269 kts 133°
2026-04-29 07:00 44.19814 18.03438 11500 ft 254 kts 133°
2026-04-29 07:00 44.18686 18.05227 10912 ft 235 kts 134°
2026-04-29 07:00 44.17630 18.06895 10339 ft 224 kts 134°
2026-04-29 07:01 44.16625 18.08487 9762 ft 208 kts 134°
2026-04-29 07:01 44.15684 18.09971 9071 ft 201 kts 134°
2026-04-29 07:01 44.14770 18.11413 8248 ft 195 kts 134°
2026-04-29 07:01 44.13853 18.12802 7291 ft 196 kts 141°
2026-04-29 07:02 44.12615 18.13636 6353 ft 205 kts 169°
2026-04-29 07:02 44.11170 18.13648 5386 ft 214 kts 194°
2026-04-29 07:02 44.09828 18.12740 4607 ft 214 kts 217°
2026-04-29 07:02 44.08647 18.11614 4275 ft 195 kts 213°
2026-04-29 07:03 44.07581 18.10720 4252 ft 164 kts 211°
2026-04-29 07:03 44.06663 18.10014 4249 ft 149 kts 209°
2026-04-29 07:03 44.05768 18.09386 4275 ft 141 kts 206°
2026-04-29 07:03 44.04939 18.08850 4257 ft 121 kts 206°
2026-04-29 07:04 44.04204 18.08416 4261 ft 113 kts 205°
2026-04-29 07:04 44.03463 18.08012 4265 ft 116 kts 203°
2026-04-29 07:04 44.02709 18.07632 4265 ft 113 kts 201°
2026-04-29 07:04 44.01959 18.07287 4265 ft 110 kts 200°
2026-04-29 07:05 44.01251 18.06992 4266 ft 107 kts 199°
2026-04-29 07:05 44.00538 18.06725 4267 ft 106 kts 196°
2026-04-29 07:05 43.99826 18.06484 4265 ft 105 kts 194°
2026-04-29 07:05 43.99088 18.06262 4277 ft 111 kts 193°
2026-04-29 07:06 43.98351 18.06069 4268 ft 104 kts 191°
2026-04-29 07:06 43.97633 18.05907 4270 ft 106 kts 190°
2026-04-29 07:06 43.96881 18.05763 4286 ft 112 kts 188°
2026-04-29 07:06 43.96126 18.05652 4277 ft 106 kts 186°
2026-04-29 07:07 43.95400 18.05569 4269 ft 106 kts 186°
2026-04-29 07:07 43.94659 18.05512 4274 ft 108 kts 185°
2026-04-29 07:07 43.93899 18.05482 4293 ft 112 kts 184°
2026-04-29 07:07 43.93143 18.05599 4266 ft 106 kts 161°
2026-04-29 07:08 43.92561 18.06158 4266 ft 104 kts 133°
2026-04-29 07:08 43.92183 18.07057 4284 ft 112 kts 117°
2026-04-29 07:08 43.91825 18.08011 4282 ft 109 kts 118°
2026-04-29 07:08 43.91489 18.08929 4279 ft 106 kts 117°
2026-04-29 07:09 43.91162 18.09861 4282 ft 109 kts 116°
2026-04-29 07:09 43.90840 18.10814 4287 ft 109 kts 116°
2026-04-29 07:09 43.90534 18.11754 4285 ft 105 kts 114°
2026-04-29 07:09 43.90248 18.12688 4286 ft 106 kts 112°
2026-04-29 07:10 43.89974 18.13656 4286 ft 109 kts 111°
2026-04-29 07:10 43.89711 18.14638 4287 ft 109 kts 110°
2026-04-29 07:10 43.89467 18.15610 4286 ft 107 kts 109°
2026-04-29 07:10 43.89142 18.16521 4271 ft 105 kts 143°
2026-04-29 07:11 43.88597 18.17177 4296 ft 103 kts 137°
2026-04-29 07:11 43.88182 18.17985 4292 ft 106 kts 118°
2026-04-29 07:11 43.87823 18.18880 4291 ft 107 kts 120°
2026-04-29 07:11 43.87470 18.19782 4301 ft 106 kts 119°
2026-04-29 07:12 43.87127 18.20685 4332 ft 106 kts 118°
2026-04-29 07:12 43.86788 18.21590 4358 ft 104 kts 118°
2026-04-29 07:12 43.86466 18.22450 3990 ft 99 kts 118°
2026-04-29 07:12 43.86144 18.23312 3487 ft 102 kts 118°
2026-04-29 07:13 43.85816 18.24192 3010 ft 100 kts 118°
2026-04-29 07:13 43.85519 18.24986 2934 ft 93 kts 118°
2026-04-29 07:13 43.85187 18.25870 2824 ft 112 kts 118°
2026-04-29 07:13 43.84834 18.26805 2651 ft 105 kts 118°
2026-04-29 07:14 43.84503 18.27689 2494 ft 105 kts 118°
2026-04-29 07:14 43.84160 18.28606 2327 ft 107 kts 118°
2026-04-29 07:14 43.83826 18.29498 2160 ft 100 kts 118°
2026-04-29 07:14 43.83511 18.30340 2016 ft 102 kts 117°
2026-04-29 07:15 43.83171 18.31246 1855 ft 107 kts 117°
2026-04-29 07:15 43.82841 18.32141 1681 ft 103 kts 117°
2026-04-29 07:15 43.82530 18.32962 1663 ft 88 kts 116°
2026-04-29 07:15 43.82338 18.33470 1682 ft 35 kts 118°
2026-04-29 07:16 43.82300 18.33690 1683 ft 17 kts 343°
2026-04-29 07:16 43.82438 18.33649 1680 ft 19 kts 37°
2026-04-29 07:16 43.82485 18.33794 1686 ft 1 kts 15°
2026-04-29 07:16 43.82486 18.33795 1686 ft 0 kts 25°